Flag for Germany Weather past 2 weeks in Idar-Oberstein, Rhineland-Palatinate, Germany

Now
61 °F

Partly sunny.


Feels Like: 61 °F
Forecast: 46 / 63 °F
Wind: 15 mph from West

Location: Hahn

Current Time: May 28, 2015 at 3:15:30 PM

Latest Report: May 28, 2015 at 2:50 PM


Visibility: N/A

Pressure: 29.98 "Hg

Humidity: 55%

Dew point: 45 °F

Location of Idar-ObersteinLocation

Historic Weather in Idar-Oberstein — Graph

°F

Idar-Oberstein temperature yesterday

Maximum temperature yesterday: 55 °F (at 5:20 PM)
Minimum temperature yesterday: 41 °F (at 1:50 AM)
Average temperature yesterday: 47 °F

Past Weeks' High & Low Weather Summary

 TemperatureHumidityPressure
High66 °F (May 18, 4:50 PM)100% (May 15, 3:20 AM)30.33 "Hg (May 15, 3:20 AM)
Low37 °F (May 21, 6:20 AM)37% (May 18, 4:50 PM)29.71 "Hg (May 18, 7:50 PM)
Average52 °F71%30.07 "Hg
* Reported May 13 2:20 PM — May 28 2:20 PM, Idar-Oberstein, Weather by CustomWeather, © 2015

Note: Actual official high and low records may vary slightly from our data, if they occured in-between our weather recording intervals... More about our weather records

Advertising

Idar-Oberstein weather history for previous 24 hours

 ConditionsComfort  
Time TempWeatherWind HumidityBarometerVisibility
2:20 PM
Thu, May 28
61 °FPassing clouds.13 mph55%29.98 "HgN/A
1:50 PM64 °FScattered clouds.15 mph49%29.98 "HgN/A
1:20 PM63 °FScattered clouds.17 mph56%29.98 "HgN/A
12:50 PM61 °FScattered clouds.14 mph59%29.98 "HgN/A
12:20 PM61 °FScattered clouds.15 mph59%30.01 "HgN/A
11:50 AM61 °FScattered clouds.17 mph59%30.01 "HgN/A
11:20 AM59 °FScattered clouds.13 mph59%30.01 "HgN/A
10:50 AM59 °FBroken clouds.14 mph59%30.01 "HgN/A
10:20 AM57 °FScattered clouds.12 mph59%30.04 "HgN/A
9:50 AM55 °FScattered clouds.12 mph63%30.04 "HgN/A
9:20 AM55 °FPassing clouds.8 mph59%30.04 "HgN/A
8:50 AM54 °FScattered clouds.10 mph63%30.04 "HgN/A
8:20 AM52 °FPartly sunny.9 mph67%30.04 "HgN/A
7:50 AM52 °FSunny.8 mph67%30.04 "Hg10 mi
7:20 AM50 °FSunny.9 mph67%30.04 "Hg10 mi
6:50 AM50 °FSunny.10 mph67%30.04 "Hg10 mi
6:20 AM50 °FClear.12 mph67%30.04 "Hg10 mi
5:50 AM48 °FPassing clouds.6 mph66%30.07 "HgN/A
5:20 AM45 °FClear.9 mph76%30.07 "Hg10 mi
4:50 AM43 °FClear.9 mph81%30.07 "Hg10 mi
4:20 AM43 °FClear.6 mph81%30.07 "Hg10 mi
3:50 AM43 °FClear.9 mph81%30.07 "Hg10 mi
3:20 AM43 °FClear.9 mph81%30.07 "Hg10 mi
2:50 AM43 °FPassing clouds.8 mph81%30.09 "HgN/A
2:20 AM43 °FClear.9 mph81%30.09 "Hg10 mi
1:50 AM43 °FClear.8 mph81%30.09 "Hg10 mi
1:20 AM43 °FClear.9 mph81%30.09 "Hg10 mi
12:50 AM45 °FClear.10 mph76%30.12 "Hg10 mi
12:20 AM45 °FClear.10 mph76%30.12 "Hg10 mi
11:50 PM
Wed, May 27
45 °FClear.10 mph76%30.12 "Hg10 mi
11:20 PM46 °FClear.10 mph71%30.15 "Hg10 mi
10:50 PM46 °FClear.9 mph71%30.15 "Hg10 mi
10:20 PM46 °FSunny.10 mph71%30.15 "Hg10 mi
9:50 PM48 °FSunny.8 mph66%30.15 "Hg10 mi
9:20 PM50 °FSunny.6 mph62%30.15 "Hg10 mi
8:50 PM52 °FSunny.8 mph58%30.15 "Hg10 mi
8:20 PM54 °FSunny.8 mph54%30.15 "Hg10 mi
7:50 PM54 °FPassing clouds.7 mph54%30.18 "HgN/A
7:20 PM54 °FSunny.2 mph54%30.18 "Hg10 mi
6:50 PM54 °FPassing clouds.3 mph54%30.18 "HgN/A
6:20 PM55 °FPassing clouds.5 mph51%30.18 "HgN/A
5:50 PM54 °FScattered clouds.1 mph54%30.21 "HgN/A
5:20 PM55 °FPartly sunny.3 mph51%30.21 "HgN/A
4:50 PM54 °FPartly sunny.2 mph54%30.21 "HgN/A
4:20 PM54 °FScattered clouds.2 mph51%30.21 "HgN/A
3:50 PM54 °FScattered clouds.6 mph51%30.21 "HgN/A
3:20 PM54 °FPartly sunny.5 mph51%30.24 "HgN/A
Weather by CustomWeather, © 2015

See weather overviewHow to use our weather pages